Torna al catalogo

METEOR 2-8 DEB

AttivoPO
NORAD 36337·DEBRIS·🇷🇺 Russia

Lanciato Mar 25, 1982 da Plesetsk Cosmodrome

Loading…

Prossimi Passaggi (prossime 24 ore)

TLE

AggiornatoSource: Space-Track

Epoca: Sep 14, 2026, 01:54 UTC

1 36337U 82025X   26257.07928949  .00000727  00000-0  33876-3 0  9995
2 36337  82.5246 180.1853 0016872 349.4867  10.5958 14.19272221637715

Traccia METEOR 2-8 DEB in tempo reale con AllMySat

Download on the App Store